Temperature
20 20 20 19 19 19 19 19 19 19 19 19 19 19 19 19 19 19 19 19 19 19 19 19 19 19 18 18 18 18 18 18 18 19 18 18 18 18 18 18 18 18 18
20 20 20 19 19 19 19 19 19 19 19 19 19 19 19 19 19 19 19 19 19 19 18 18 18 18 18 18 18 18 18 18 18 18 18 18 18 18 18 18 18 18 18
20 20 20 20 19 19 19 19 19 19 19 19 19 19 19 19 19 19 19 19 19 18 18 18 18 18 18 18 18 18 18 18 18 18 18 18 18 18 18 18 18 18 18
20 20 20 20 19 19 19 19 19 19 19 19 19 19 19 19 19 19 18 18 18 18 18 18 18 18 18 18 18 18 18 18 18 18 18 18 18 18 18 18 18 18 18
21 20 20 20 20 20 19 19 19 19 19 19 19 19 19 19 19 18 18 18 18 18 18 18 18 18 18 18 18 18 18 18 18 18 18 18 18 18 18 18 18 18 18
21 20 20 20 20 20 19 19 19 19 19 19 19 19 19 19 18 18 18 18 18 18 18 18 18 18 18 18 18 18 18 18 18 18 18 18 18 18 18 18 18 18 18
21 21 20 20 20 19 19 19 19 19 19 19 19 19 19 19 18 18 18 18 18 18 18 18 18 18 18 18 18 18 18 18 18 18 18 18 18 18 18 18 18 18 18
21 21 21 20 20 20 19 19 19 19 19 19 19 19 19 19 19 19 19 18 18 18 18 18 18 18 18 18 18 18 18 18 18 18 18 18 18 18 18 18 18 18 17
21 21 21 20 20 20 19 19 19 19 19 19 19 19 19 19 19 19 19 18 18 18 18 18 18 18 18 18 18 18 18 18 18 18 18 18 18 18 18 18 18 18 18
21 21 21 20 20 20 19 19 19 19 19 19 19 19 18 19 19 19 18 18 18 18 18 18 18 18 18 18 18 18 18 18 18 18 18 18 18 18 18 18 18 18 18
21 21 20 20 20 20 19 19 19 19 19 19 19 18 18 18 18 18 18 18 18 18 18 18 18 18 18 18 18 18 18 18 18 18 18 18 18 18 18 18 18 18 17
21 21 20 20 20 20 19 19 19 19 19 18 18 18 18 18 18 18 18 18 18 18 18 18 18 18 18 18 18 18 18 18 18 18 18 18 18 18 18 18 18 17 17
21 21 20 20 20 19 19 19 19 19 19 19 19 18 18 18 18 18 18 18 18 18 18 18 18 18 18 18 18 18 18 18 18 18 18 18 18 18 18 18 18 17 17
21 21 20 20 20 19 19 19 19 19 19 19 19 18 18 18 18 18 18 18 18 18 18 18 18 18 18 18 18 18 18 18 18 18 18 18 18 18 18 18 18 17 17
21 21 20 20 20 19 19 19 19 19 19 19 19 19 18 18 18 18 18 18 18 18 18 18 18 18 18 18 18 18 18 18 18 18 18 18 18 18 18 18 18 18 17
21 21 20 20 20 19 19 19 19 19 19 19 19 18 18 18 18 18 18 18 18 18 18 18 18 18 18 18 18 18 18 18 18 18 18 18 18 18 18 18 18 18 17
21 21 20 20 20 20 19 19 19 19 19 19 19 19 18 18 18 18 18 18 18 18 18 18 18 18 18 18 18 18 18 18 18 18 18 18 18 18 18 18 18 17 17
21 20 20 20 20 20 20 19 19 19 19 19 19 19 18 18 18 18 18 18 18 18 18 18 18 18 18 18 18 18 18 18 18 18 18 18 18 18 18 18 18 17 17
21 20 20 20 20 20 20 20 19 19 19 19 19 19 18 18 18 18 18 18 18 18 18 18 18 18 18 18 19 19 19 18 18 18 18 18 18 18 18 18 18 17 17
21 21 20 20 20 20 20 20 19 19 19 19 19 19 19 19 18 18 18 18 18 18 18 18 18 18 18 18 19 19 19 19 19 19 19 18 18 18 18 18 18 17 17
21 21 20 20 20 20 20 20 20 19 19 19 19 19 19 19 19 18 18 18 18 18 18 18 18 18 18 19 19 19 19 19 19 19 19 19 18 18 18 18 18 17 17
21 21 20 20 20 20 20 20 20 20 20 19 19 19 19 19 19 19 19 18 18 18 18 18 18 18 18 18 18 19 19 19 19 19 19 19 18 18 18 18 18 17 17
22 21 21 20 20 20 20 20 20 20 20 19 19 19 19 19 19 19 19 19 18 18 18 18 18 18 18 18 18 18 19 19 19 19 19 19 19 18 18 18 17 17 17
22 21 21 21 20 20 20 20 20 20 19 19 19 19 19 19 19 18 18 18 18 18 18 18 18 18 18 18 18 18 19 19 18 18 19 19 19 18 18 18 17 17 17
22 21 21 21 21 20 20 20 20 20 19 19 19 19 19 19 19 19 18 18 18 18 18 18 18 18 18 18 18 18 18 18 18 18 18 18 18 18 18 18 18 17 17
22 22 21 21 21 20 20 20 20 20 20 19 19 19 19 19 19 19 18 18 18 18 18 18 18 18 18 18 18 18 18 18 18 18 18 18 18 18 18 18 18 17 17
Wind_Speed
8 10 9 9 7 7 6 6 6 5 5 4 4 5 6 6 7 7 7 8 8 8 8 8 9 8 7 7 7 7 7 7 7 7 6 6 7 6 6 6 6 6 9
10 11 10 9 8 7 7 6 6 6 5 4 5 6 6 6 7 7 8 8 8 8 8 8 8 8 8 7 7 7 7 7 6 6 5 5 7 6 5 5 5 6 9
11 11 10 9 9 7 7 6 6 6 5 5 6 6 7 6 7 7 8 8 8 8 7 8 8 8 8 7 7 6 6 6 6 6 5 5 8 7 7 7 7 7 9
11 10 10 9 9 8 7 7 6 6 6 6 7 7 7 7 7 7 7 7 7 7 7 7 6 7 7 7 6 6 6 6 5 4 4 5 7 8 8 7 7 8 9
11 11 11 9 9 8 7 7 7 7 6 5 6 6 6 7 7 7 7 7 7 7 7 6 6 6 6 6 5 6 6 5 4 3 3 3 6 9 9 8 8 8 8
11 12 11 10 9 8 8 8 7 7 6 6 6 6 6 6 6 7 7 6 6 6 6 6 5 6 6 5 5 5 5 5 3 3 4 4 6 9 9 8 8 8 8
9 11 12 11 9 8 8 8 7 7 7 7 6 6 6 7 7 7 6 5 6 6 6 5 4 5 5 5 5 5 4 4 4 3 4 6 7 8 8 8 8 8 8
10 10 11 10 10 9 8 8 7 7 7 7 6 6 6 7 7 6 6 5 6 5 5 4 4 4 5 6 6 5 5 5 3 4 5 6 8 8 7 7 7 7 8
9 9 9 9 9 9 8 8 7 6 6 7 7 6 6 6 7 7 6 6 5 5 5 5 4 5 6 6 6 6 5 4 2 2 5 7 9 8 7 8 7 7 7
9 8 7 8 8 8 8 8 7 7 6 6 5 6 5 6 7 7 7 6 5 5 5 6 6 6 6 6 6 5 5 4 2 2 5 7 10 9 8 7 6 6 6
8 8 7 7 6 6 8 9 7 6 6 5 4 4 4 4 5 6 6 7 6 6 6 7 7 7 6 7 7 6 4 3 2 3 5 9 11 10 9 7 6 6 5
7 7 7 8 7 6 6 7 5 5 5 4 4 2 2 3 3 5 7 6 5 6 6 7 8 7 6 4 6 6 3 3 4 4 6 11 11 10 9 8 7 7 6
6 7 8 7 6 6 5 4 3 3 4 4 4 3 3 3 4 5 4 4 4 4 4 6 6 5 4 3 3 4 3 2 2 3 8 11 11 10 9 8 7 7 6
7 7 7 7 7 6 5 3 3 3 3 3 3 4 4 3 3 3 2 2 2 2 3 3 3 4 3 2 2 2 2 1 2 4 8 12 11 10 9 9 8 7 6
7 7 8 7 7 5 4 3 4 4 4 4 3 4 4 4 3 3 3 2 2 2 2 2 2 2 2 2 1 1 1 2 3 4 7 12 11 10 9 8 8 7 7
7 7 6 7 7 5 4 3 3 4 3 3 3 5 5 4 4 3 2 2 2 2 2 2 1 2 2 1 1 1 2 2 4 4 6 8 10 10 10 8 8 7 6
7 6 5 6 6 5 3 2 2 2 3 3 4 5 5 4 4 3 2 2 2 2 2 2 1 1 1 1 2 2 2 2 2 4 5 6 8 9 10 9 8 7 6
7 6 4 5 6 5 3 2 2 3 3 3 3 3 3 4 3 2 2 3 2 1 1 2 1 0 0 0 0 1 2 2 2 3 4 5 6 6 8 9 8 7 6
7 5 4 4 5 4 3 2 2 2 2 1 2 2 3 3 2 1 2 2 1 1 1 1 2 0 0 0 1 2 2 2 2 2 3 5 5 6 7 9 9 9 7
7 6 5 4 3 2 2 1 1 2 1 1 2 2 2 3 2 1 1 1 1 1 1 2 1 1 1 1 1 0 1 2 1 2 2 2 4 5 5 7 7 7 8
8 7 5 3 3 2 1 1 0 1 1 1 2 3 3 2 2 1 2 2 1 2 1 1 1 1 1 0 1 1 1 2 2 2 2 2 2 2 4 6 6 5 6
8 7 5 5 4 2 2 1 1 1 0 1 1 2 2 1 1 1 1 1 1 1 1 1 1 1 1 1 1 1 1 1 2 2 2 2 2 2 2 4 4 5 5
8 7 5 4 4 3 2 1 0 0 0 1 1 2 1 1 1 1 1 1 1 0 1 1 1 1 2 2 1 1 1 1 1 1 2 2 2 2 2 3 4 4 4
8 7 6 5 4 3 2 1 1 1 0 1 0 1 1 1 1 1 1 1 1 1 0 1 0 2 2 2 1 1 1 0 1 1 1 1 2 2 2 1 2 3 4
8 8 7 6 4 3 2 1 1 0 0 0 1 1 0 2 1 1 1 1 1 1 0 1 1 2 2 3 2 2 1 1 2 1 2 2 2 1 1 1 1 2 4
8 8 8 7 5 4 3 2 1 1 0 0 0 0 1 1 2 1 1 1 1 1 1 1 2 2 2 3 3 3 2 1 1 1 2 2 2 2 1 1 2 2 3
Wind_Direction
87 90 80 69 63 59 63 67 62 63 72 91 108 110 110 109 110 110 115 117 116 115 117 130 138 132 129 139 136 134 136 138 133 134 133 139 139 136 134 136 144 135 134
96 95 83 74 71 70 70 70 66 62 66 80 105 111 110 111 112 115 119 121 120 120 121 125 131 130 127 130 133 130 133 136 141 139 133 149 149 139 130 138 140 133 139
96 98 92 81 77 74 75 71 65 70 70 78 98 112 113 111 111 115 120 121 122 124 129 132 132 133 132 137 139 140 144 147 152 158 157 151 143 145 137 132 130 135 138
100 97 91 93 84 78 75 69 69 72 76 85 98 108 113 112 113 116 122 125 124 123 128 132 132 133 136 138 146 155 160 166 172 176 177 159 144 143 141 140 137 136 138
101 98 99 103 94 86 78 71 73 78 81 92 107 113 116 117 116 118 120 124 126 125 128 133 138 142 143 145 151 163 172 181 191 192 179 153 130 141 146 147 147 146 146
97 104 109 108 101 93 83 76 78 82 81 93 112 121 121 124 123 118 119 123 124 126 128 132 142 151 152 152 156 171 184 191 199 181 144 118 119 142 151 154 156 158 161
94 105 113 110 107 100 90 83 82 85 90 98 108 119 120 119 123 126 128 130 129 126 128 131 146 160 161 162 170 184 192 203 199 157 131 121 123 140 149 161 164 168 173
87 95 112 115 114 105 100 94 87 87 94 105 114 118 122 123 125 129 133 137 133 132 137 142 153 167 179 181 191 204 212 218 199 157 134 125 133 147 155 166 168 174 184
81 90 105 114 121 111 108 104 100 97 101 107 115 122 127 133 140 142 139 142 142 145 152 157 170 183 188 191 202 212 223 231 253 153 136 122 138 148 153 163 172 181 187
73 76 88 104 113 118 117 113 116 114 111 111 113 126 135 142 153 155 147 154 159 162 166 172 181 187 189 196 203 216 231 248 218 160 126 138 151 155 155 158 167 181 191
74 75 69 71 77 92 106 116 123 119 114 117 118 135 154 163 156 150 149 160 169 173 178 182 189 189 195 204 212 225 237 221 146 133 133 151 157 160 164 167 172 178 188
67 70 70 72 64 73 84 109 111 99 108 107 97 100 132 123 114 106 127 153 163 166 173 180 186 190 198 205 208 218 233 204 150 146 147 152 159 165 168 174 184 188 198
81 70 66 73 69 66 72 88 95 95 102 98 89 82 92 97 100 107 123 142 161 159 167 170 178 181 186 194 179 188 201 204 140 143 141 154 162 166 170 177 185 190 198
92 81 76 75 72 61 61 63 84 89 100 92 90 61 78 72 63 75 84 106 153 144 147 151 164 170 172 176 188 186 164 136 105 120 147 156 159 165 172 178 182 190 196
96 90 82 77 71 64 60 35 61 65 69 75 78 67 68 70 71 72 71 66 82 113 131 141 143 146 151 171 180 120 101 111 112 129 145 163 168 170 174 179 184 189 195
99 96 94 91 89 74 67 48 52 68 72 69 72 75 72 75 72 74 72 65 59 89 96 93 114 142 136 149 150 128 137 117 127 141 153 169 176 178 181 182 184 187 193
103 95 99 105 97 87 74 55 71 79 77 72 74 80 75 79 77 77 69 71 59 88 101 110 63 114 140 161 163 167 146 145 149 147 158 168 175 184 184 186 187 187 192
101 99 91 93 99 96 82 45 50 48 63 77 89 92 88 90 88 61 66 71 59 77 92 116 111 72 85 175 200 180 149 155 191 170 157 162 163 171 183 190 184 186 191
111 111 101 87 89 91 95 84 79 74 51 70 94 103 109 103 95 74 73 64 92 74 47 68 97 55 287 175 226 193 169 165 188 179 157 162 157 162 171 180 186 190 192
120 118 117 113 108 107 101 99 91 89 83 99 99 88 91 100 90 73 81 71 54 77 47 42 37 326 275 284 297 52 173 159 183 175 178 147 150 164 158 160 175 190 192
128 125 123 131 134 134 104 101 99 110 109 112 117 112 98 91 82 64 41 47 60 75 55 43 10 315 279 314 338 336 232 191 192 163 182 142 123 139 139 149 159 162 173
138 137 148 156 149 155 148 165 185 226 197 121 90 108 115 106 91 88 84 66 63 79 45 333 310 308 319 341 297 311 303 250 280 178 163 157 161 170 175 154 148 147 159
147 149 150 147 147 162 169 177 143 177 55 70 82 95 117 129 117 72 56 52 21 126 167 247 286 292 294 292 297 328 333 321 306 198 216 172 173 183 187 169 156 152 163
152 148 140 142 145 157 164 176 205 173 146 122 121 102 120 133 129 141 122 68 329 323 109 281 191 298 289 293 292 274 283 22 271 302 290 226 209 195 189 186 175 159 145
155 153 152 146 152 157 168 177 224 237 178 95 58 84 196 158 148 138 153 162 232 273 209 304 348 314 314 324 321 308 314 300 267 258 292 310 288 237 188 200 201 161 150
159 158 155 148 151 157 172 178 194 227 285 16 321 299 266 177 150 152 183 195 227 256 252 260 271 292 301 309 314 314 316 314 308 301 302 299 299 284 210 193 193 180 157
Height
1496 1493 1492 1491 1490 1489 1489 1489 1489 1490 1490 1490 1491 1492 1494 1495 1496 1498 1499 1500 1501 1503 1504 1505 1508 1510 1511 1512 1514 1515 1516 1518 1519 1520 1520 1521 1524 1526 1528 1529 1530 1531 1533
1496 1494 1493 1492 1490 1490 1490 1490 1490 1490 1490 1490 1491 1492 1494 1495 1497 1498 1500 1501 1502 1504 1505 1507 1509 1510 1511 1512 1513 1514 1516 1517 1518 1519 1517 1517 1521 1525 1527 1528 1529 1530 1531
1496 1495 1494 1493 1492 1491 1491 1491 1490 1490 1490 1490 1491 1493 1494 1496 1498 1499 1500 1502 1503 1504 1506 1508 1509 1510 1511 1513 1514 1515 1516 1518 1519 1519 1517 1517 1521 1525 1527 1528 1529 1529 1531
1497 1496 1495 1494 1493 1493 1492 1492 1491 1491 1491 1491 1492 1493 1495 1497 1498 1500 1501 1503 1504 1505 1506 1508 1509 1510 1512 1513 1514 1516 1517 1518 1519 1520 1520 1521 1523 1525 1527 1529 1529 1530 1532
1499 1497 1496 1495 1495 1494 1494 1493 1492 1491 1491 1490 1492 1494 1496 1497 1499 1500 1502 1503 1505 1506 1507 1508 1510 1511 1512 1514 1515 1516 1517 1518 1520 1521 1522 1523 1524 1526 1528 1529 1530 1531 1532
1500 1499 1497 1497 1496 1495 1495 1494 1493 1491 1490 1489 1491 1493 1496 1498 1500 1501 1503 1504 1505 1506 1508 1509 1510 1511 1513 1514 1515 1516 1517 1519 1520 1521 1522 1524 1525 1526 1528 1529 1530 1531 1532
1502 1500 1499 1498 1497 1497 1496 1495 1494 1492 1490 1490 1491 1494 1496 1498 1500 1502 1503 1504 1506 1507 1508 1509 1510 1512 1513 1514 1515 1516 1517 1519 1520 1521 1522 1523 1525 1526 1527 1528 1530 1531 1532
1503 1502 1500 1499 1498 1498 1497 1496 1495 1494 1493 1492 1493 1495 1498 1500 1501 1502 1504 1505 1506 1507 1508 1509 1510 1512 1513 1514 1515 1516 1518 1519 1520 1521 1522 1523 1524 1525 1526 1527 1528 1530 1531
1505 1503 1502 1501 1500 1499 1498 1498 1497 1497 1496 1495 1496 1497 1499 1501 1503 1503 1504 1505 1506 1506 1507 1508 1510 1512 1513 1514 1515 1516 1517 1519 1520 1521 1522 1523 1524 1524 1525 1525 1527 1529 1530
1506 1505 1504 1503 1502 1501 1500 1499 1499 1499 1499 1499 1499 1500 1501 1503 1504 1504 1505 1505 1505 1506 1506 1508 1510 1512 1513 1514 1515 1516 1518 1519 1519 1521 1521 1522 1523 1524 1524 1525 1527 1528 1529
1508 1507 1506 1505 1504 1503 1502 1501 1501 1502 1502 1502 1503 1503 1503 1504 1504 1505 1506 1506 1505 1505 1505 1507 1509 1512 1513 1515 1516 1517 1518 1518 1519 1520 1520 1521 1522 1523 1524 1525 1526 1526 1528
1509 1509 1508 1507 1506 1506 1505 1505 1504 1504 1505 1505 1505 1505 1505 1505 1506 1506 1506 1506 1505 1505 1505 1508 1510 1512 1514 1515 1516 1517 1518 1518 1518 1518 1519 1519 1520 1522 1523 1524 1525 1526 1527
1511 1511 1510 1509 1509 1508 1508 1508 1508 1507 1507 1507 1507 1506 1507 1507 1506 1506 1506 1506 1507 1507 1507 1509 1511 1513 1514 1516 1517 1518 1518 1519 1519 1518 1518 1517 1519 1521 1523 1524 1524 1525 1526
1513 1513 1512 1512 1511 1510 1510 1510 1510 1510 1510 1509 1509 1509 1508 1508 1507 1508 1508 1508 1509 1509 1510 1511 1513 1514 1515 1516 1517 1518 1519 1519 1518 1517 1518 1518 1519 1521 1522 1523 1523 1524 1525
1514 1514 1514 1513 1513 1512 1512 1512 1513 1513 1512 1512 1511 1511 1510 1509 1509 1509 1509 1510 1511 1511 1512 1513 1514 1516 1516 1517 1518 1519 1519 1519 1518 1518 1518 1519 1520 1521 1521 1522 1522 1523 1523
1515 1515 1515 1515 1514 1514 1514 1514 1514 1514 1514 1514 1513 1513 1512 1511 1511 1511 1511 1512 1513 1513 1514 1515 1516 1517 1517 1518 1518 1519 1519 1519 1519 1519 1519 1519 1520 1520 1521 1522 1522 1522 1522
1516 1516 1516 1516 1516 1516 1516 1516 1516 1516 1516 1516 1515 1514 1514 1513 1513 1513 1513 1514 1514 1515 1515 1516 1517 1517 1518 1519 1519 1519 1519 1519 1519 1519 1519 1520 1520 1521 1521 1521 1522 1522 1522
1516 1516 1517 1517 1517 1517 1517 1517 1517 1517 1517 1517 1516 1516 1516 1515 1515 1515 1515 1516 1516 1516 1517 1517 1518 1518 1519 1519 1519 1519 1520 1519 1519 1520 1520 1520 1520 1520 1520 1521 1521 1521 1521
1516 1517 1517 1517 1517 1518 1518 1518 1518 1518 1519 1519 1518 1518 1518 1517 1517 1517 1517 1517 1517 1517 1518 1518 1519 1519 1519 1519 1519 1519 1519 1520 1520 1520 1520 1520 1520 1520 1520 1520 1520 1520 1520
1516 1517 1517 1518 1518 1518 1518 1519 1519 1519 1520 1520 1520 1519 1519 1519 1519 1518 1518 1518 1518 1519 1519 1519 1519 1519 1519 1519 1519 1519 1520 1520 1520 1520 1521 1521 1520 1520 1520 1519 1519 1519 1518
1516 1517 1517 1518 1518 1518 1519 1519 1519 1520 1520 1520 1520 1520 1520 1520 1520 1519 1519 1519 1519 1519 1519 1519 1519 1519 1520 1520 1519 1519 1519 1520 1520 1520 1520 1520 1520 1519 1519 1518 1518 1517 1517
1515 1516 1517 1517 1518 1518 1519 1519 1520 1520 1521 1521 1521 1521 1521 1520 1521 1521 1520 1520 1520 1519 1519 1519 1519 1519 1520 1520 1520 1519 1519 1521 1519 1519 1519 1519 1519 1518 1518 1517 1517 1516 1515
1515 1515 1517 1517 1518 1518 1519 1519 1520 1520 1521 1521 1521 1521 1521 1521 1521 1520 1520 1520 1520 1519 1519 1519 1519 1519 1519 1520 1520 1520 1520 1519 1519 1519 1518 1518 1517 1517 1517 1516 1516 1515 1514
1514 1515 1516 1516 1517 1518 1518 1519 1519 1520 1520 1521 1521 1521 1521 1521 1521 1520 1520 1519 1519 1519 1519 1519 1519 1519 1519 1519 1519 1519 1520 1519 1519 1518 1518 1517 1517 1516 1516 1515 1515 1513 1513
1513 1514 1515 1516 1516 1517 1518 1518 1519 1520 1520 1520 1521 1520 1520 1520 1520 1519 1519 1519 1519 1518 1518 1518 1518 1518 1518 1518 1518 1518 1518 1518 1518 1518 1517 1516 1516 1515 1514 1514 1513 1512 1511
1512 1513 1514 1514 1515 1516 1517 1518 1518 1519 1519 1520 1520 1520 1520 1520 1519 1519 1519 1518 1518 1517 1517 1517 1517 1517 1517 1517 1517 1517 1517 1517 1517 1516 1516 1515 1514 1514 1513 1512 1511 1510 1510